Marina Di Campo Airport

Jump to: basic info | weather | frequencies | runways | comments

Related pages: nearby airports | nearby navaids | notams | map

Basic information (top)

Codes: EBA LIRJ
Location: lon 42.760300, lat 10.239400, elev 31 ft / 9 m msl
Status: medium_airport

Weather (top)

Current conditions for Bastia-Poretta Airport 36nm (66km) WSW (rec'd 2014/09/17 01:00Z):

LFKB 170100Z AUTO 22003KT 9999 BKN018 BKN023 17/16 Q1014

Airport forecast for Bastia-Poretta Airport 36nm (66km) WSW (rec'd 2014/09/16 00:15Z):

TAF LFKB 162300Z 1700/1724 22003KT 9999 SCT020 PROB30 
      TEMPO 1703/1706 MIFG BKN010 
      BECMG 1706/1708 14010KT SCT020 BKN030 
      TEMPO 1712/1718 14015KT RA FEW015 BKN020 BKN030 TX26/1712Z TN17/1702Z

Frequencies (top)

Verify before use: may be inaccurate or out of date.

AFIS: 123.7 MHz (AFIS)

Runways (top)

16/34: 3,114 x 75 ft (949 x 23 m) — paved — not lighted — threshold 16 displaced 479 ft (146 m) — threshold 34 displaced 285 ft (87 m)

Latest comments (top)

No comments yet for Marina Di Campo Airport

More... (top)

See also NOTAMs and nearby airports and navaids, or visit the Marina Di Campo Airport page at the main OurAirports website..